{"data":{"norad_id":82698,"intl_designator":"","name":"UNKNOWN","alt_names":[],"object_type":"UNKNOWN","status":"UNKNOWN","operator":null,"country":null,"launch_date":null,"launch_site_code":null,"launch_vehicle":null,"mission":null,"orbit_class":"UNKNOWN","rcs_meters":null,"size_class":null,"mass_kg":null,"dimensions":null,"purposes":[],"wikipedia_slug":null,"has_3d_model":false,"image_url":null,"decayed_at":null,"tle_current":{"epoch":"2026-09-18T04:38:32.191296Z","epoch_age_seconds":217643,"freshness":"STALE","line1":"1 82698U          26261.19342814  .00001078  00000+0  62536-3 0  9992","line2":"2 82698  61.6035 121.2854 0702433  32.5810 331.6582 13.30324487575546","mean_motion":13.30324487,"eccentricity":0.0702433,"inclination_deg":61.6035,"raan_deg":121.2854,"arg_perigee_deg":32.581,"mean_anomaly_deg":331.6582,"bstar":0.00062536,"rev_number":57554,"period_min":108.24426777615,"perigee_km":617.0517029184,"apogee_km":1674.0274442402,"semimajor_km":7523.6765735793,"source":"CELESTRAK","updated_at":"2026-09-20T09:00:32.438102Z"}}}